User: anonymous   Login
Location: Penton Mewsey
(51.2167°N, 1.5167°W)
Time: 13:05:19
(UTC+00:00)
Language:

Terra - Orbit

View from above orbital plane
View from above orbital plane
View from above satellite
View from above satellite

Ground track
Ground track

The orbit data is extracted from the following two-line orbital elements,

1 25994U 99068A   20192.17471416 -.00000762  00000-0 -15916-3 0  9998
2 25994  98.2126 266.1432 0001349  87.2180 272.9136 14.57109342 93622
Epoch (UTC): 10 July 2020 04:11:35
Eccentricity: 0.0001349
inclination: 98.2126°
perigee height: 701 km
apogee height: 703 km
right ascension of ascending node: 266.1432°
argument of perigee: 87.2180°
revolutions per day: 14.57109342
mean anomaly at epoch: 272.9136°
orbit number at epoch: 9362

The dashed part of the orbit path shows where the satellite is in the earth's shadow,  

DLR